Tracking 22879 objects as of 21-Apr-2021
HD Live streaming from Space Station
objects crossing your sky now

OPS 9323 (IDSCS 10)

Track OPS 9323 (IDSCS 10) now!
OPS 9323 (IDSCS 10) is classified as:


NORAD ID: 2650
Int'l Code: 1967-003C
Perigee: 33,553.2 km
Apogee: 33,851.8 km
Inclination: 4.8 °
Period: 1,330.6 minutes
Semi major axis: 40073 km
RCS: 0.003 m2 (small)
Launch date: January 18, 1967
Source: United States (US)
Launch site: AIR FORCE EASTERN TEST RANGE (AFETR)
aabbcc
Your satellite tracking list
Your tracking list is empty




NASA's NSSDC Master Catalog

Two Line Element Set (TLE):
1 02650U 67003C   21109.94366333 -.00000107  00000-0  00000-0 0  9998
2 02650   4.8081  57.1405 0037262  54.1751 128.5594  1.08222462120050
Source of the keplerian elements: AFSPC